EUTELSAT 9A

Last updated on June 30, 2016, 1:38 a.m. UTC

1 28946U 06007B   16181.41309666  .00000036  00000-0  10000-3 0  9997
2 28946   0.0410 109.5425 0004786 359.8739 330.2296  1.00272427 37809
UTC
Height (km)
Latitude
Longitude
Inclination
Orbital Period
UTC large
Height (km)
Speed (km/s)
/
Latitude / Longitude
Inclination (degrees)
Orbital Period (minutes)
Azimuth
Elevation
Range (km)
Doppler Factor
iOS Compass Heading
iOS Angle

Next 30 passes for location: Hong Kong

Rise time Rise Azimuth (degrees) Set time Set Azimuth (degrees) Duration Max altitude (degrees)

No matching passes for this satellites